Tracking 19570 objects as of 22-Feb-2019
HD Live streaming from Space Station
objects crossing your sky now

RADCAL

Track RADCAL now!
10-day predictions
RADCAL is classified as:


NORAD ID: 22698
Int'l Code: 1993-041A
Perigee: 758.6 km
Apogee: 883.4 km
Inclination: 89.6 °
Period: 101.2 minutes
Semi major axis: 7192 km
RCS: 0.589 m2 (medium)
Launch date: June 25, 1993
Source: United States (US)
Launch site: AIR FORCE WESTERN TEST RANGE (AFWTR)

This spacecraft was used to help calibrate radar target cross section data.
aabbcc
Your satellite tracking list
Your tracking list is empty




NASA's NSSDC Master Catalog

Two Line Element Set (TLE):
1 22698U 93041A   19051.97024313  .00000035  00000-0  99153-5 0  9999
2 22698  89.5691 202.4733 0086772 287.0817  72.0884 14.23392082332125
Source of the keplerian elements: AFSPC